GW0755 Weather Reports


time (UTC)temp
F
wind
direction
speed
knots
gust
knots
rain 1hr
in
rain 24hr
in
rain mn
in
humidity
%
barometer
mb
20260507154557 86 72 8.7 15.6 0.00 0.00 0.00 74 1014.8
20260507153051 86 105 9.6 16.5 0.00 0.00 0.00 76 1014.9
20260507151551 86 87 7.8 13.9 0.00 0.00 0.00 75 1014.9
20260507150051 86 105 8.7 15.6 0.00 0.00 0.00 76 1014.8
20260507144617 85 81 7.0 14.8 0.00 0.00 0.00 77 1014.7
20260507143057 85 102 8.7 17.4 0.00 0.00 0.00 77 1014.7
20260507141620 86 115 6.1 17.4 0.00 0.00 0.00 76 1014.4
20260507140056 85 48 6.1 16.5 0.00 0.00 0.00 77 1014.2
20260507134552 84 101 7.0 12.2 0.00 0.00 0.00 79 1014.2
20260507133052 84 73 7.0 13.0 0.00 0.00 0.00 79 1014.3
20260507131553 84 120 9.6 15.6 0.00 0.00 0.00 79 1014.1
20260507130108 83 128 6.1 12.2 0.00 0.00 0.00 80 1013.9
20260507124552 83 75 3.5 12.2 0.00 0.00 0.00 82 1013.8
20260507123052 81 0 3.5 9.6 0.00 0.00 0.00 84 1013.7
20260507121552 81 77 1.7 6.1 0.00 0.00 0.00 84 1013.7
20260507120050 80 100 1.7 5.2 0.00 0.00 0.00 86 1013.5
20260507114557 79 105 1.7 6.1 0.00 0.00 0.00 87 1013.4
20260507113046 79 103 0.9 7.8 0.00 0.00 0.00 87 1013.2
20260507111553 79 88 2.6 7.0 0.00 0.00 0.00 87 1012.9
20260507110054 79 75 4.3 9.6 0.00 0.00 0.00 87 1012.6
20260507104556 79 102 3.5 7.0 0.00 0.00 0.00 88 1012.6
20260507103050 79 91 3.5 8.7 0.00 0.00 0.00 88 1012.3
20260507101554 79 74 3.5 10.4 0.00 0.00 0.00 87 1012.4
20260507100052 80 89 4.3 8.7 0.00 0.00 0.00 87 1012.3
20260507094552 80 77 4.3 8.7 0.00 0.00 0.00 87 1012.2
20260507093058 79 115 4.3 8.7 0.00 0.00 0.00 88 1012.1
20260507091557 79 95 2.6 7.0 0.00 0.00 0.00 88 1012.1
20260507090050 79 120 3.5 7.0 0.00 0.00 0.00 88 1012.2
20260507084551 79 77 3.5 7.8 0.00 0.00 0.00 88 1012.3
20260507083052 79 83 2.6 8.7 0.00 0.00 0.00 88 1012.4
20260507081552 79 92 1.7 8.7 0.00 0.00 0.00 88 1012.5
20260507080056 79 82 2.6 8.7 0.00 0.00 0.00 88 1012.7
20260507074557 79 75 3.5 7.8 0.00 0.00 0.00 88 1012.8
20260507073101 79 70 2.6 7.0 0.00 0.00 0.00 88 1013.0
20260507071556 79 68 2.6 6.1 0.00 0.00 0.00 88 1013.2
20260507070100 79 60 1.7 5.2 0.00 0.00 0.00 88 1013.3
20260507064602 79 44 4.3 9.6 0.00 0.00 0.00 87 1013.3
20260507063056 79 71 2.6 7.0 0.00 0.00 0.00 88 1013.6
20260507061604 79 0 2.6 7.0 0.00 0.00 0.00 88 1013.7
20260507060104 79 65 2.6 9.6 0.00 0.00 0.00 87 1013.9
20260507054552 80 46 2.6 6.1 0.00 0.00 0.00 87 1014.2
20260507053056 80 58 3.5 13.0 0.00 0.00 0.00 87 1014.3
20260507051553 79 82 3.5 7.8 0.00 0.00 0.00 87 1014.5
20260507050050 79 126 3.5 7.8 0.00 0.00 0.00 88 1014.5
20260507044600 79 41 1.7 4.3 0.00 0.00 0.00 88 1014.8
20260507043051 79 102 1.7 6.1 0.00 0.00 0.00 88 1014.8
20260507041551 79 77 2.6 6.1 0.00 0.00 0.00 88 1015.0
20260507040050 79 84 2.6 6.1 0.00 0.00 0.00 89 1015.0
20260507034603 79 101 2.6 6.1 0.00 0.00 0.00 89 1014.9
20260507033056 79 112 3.5 8.7 0.00 0.00 0.00 89 1014.8
20260507031551 79 104 3.5 7.0 0.00 0.00 0.00 89 1014.6
20260507030057 79 97 3.5 7.8 0.00 0.00 0.00 89 1014.5
20260507024557 80 84 3.5 7.0 0.00 0.00 0.00 88 1014.4
20260507023053 80 98 0.9 4.3 0.00 0.00 0.00 86 1014.3
20260507021556 80 104 1.7 5.2 0.00 0.00 0.00 86 1014.2
20260507020050 80 115 0.0 4.3 0.00 0.00 0.00 86 1014.2
20260507014550 80 102 0.9 5.2 0.00 0.00 0.00 85 1014.2
20260507013058 80 103 2.6 6.1 0.00 0.00 0.00 85 1014.0
20260507011555 81 106 1.7 5.2 0.00 0.00 0.00 84 1014.0
20260507010054 81 91 2.6 7.0 0.00 0.00 0.00 83 1013.9
20260507004553 81 86 1.7 7.0 0.00 0.00 0.00 83 1013.8
20260507003049 81 84 2.6 7.0 0.00 0.00 0.00 83 1013.6
20260507001549 82 91 1.7 6.1 0.00 0.00 0.00 82 1013.4
20260507000054 82 150 4.3 12.2 0.00 0.00 0.00 80 1013.3
20260506234554 83 42 5.2 10.4 0.00 0.00 0.00 80 1013.2
20260506233051 83 114 7.0 13.0 0.00 0.00 0.00 79 1013.1
20260506231550 84 74 4.3 14.8 0.00 0.00 0.00 78 1013.0
20260506230049 85 96 7.0 14.8 0.00 0.00 0.00 76 1013.0
20260506224602 86 50 5.2 12.2 0.00 0.00 0.00 74 1013.1
20260506223056 85 105 7.0 13.9 0.00 0.00 0.00 74 1012.9
20260506221556 85 105 7.8 18.2 0.00 0.00 0.00 74 1012.9
20260506220051 85 51 7.8 17.4 0.00 0.00 0.00 75 1012.9
20260506214609 86 76 7.8 19.1 0.00 0.00 0.00 72 1012.8
20260506213053 86 90 7.0 13.9 0.00 0.00 0.00 73 1012.8
20260506211552 87 44 6.1 13.0 0.00 0.00 0.00 70 1012.8
20260506210055 87 67 7.0 15.6 0.00 0.00 0.00 71 1013.1
20260506204559 88 44 7.0 16.5 0.00 0.00 0.00 71 1013.1
20260506203055 88 74 8.7 15.6 0.00 0.00 0.00 67 1013.2
20260506201552 88 79 7.0 14.8 0.00 0.00 0.00 68 1013.3
20260506200051 88 41 7.8 15.6 0.00 0.00 0.00 70 1013.5
20260506194603 88 107 7.0 13.0 0.00 0.00 0.00 69 1013.8
20260506193059 88 66 8.7 15.6 0.00 0.00 0.00 68 1013.9
20260506191552 88 92 9.6 18.2 0.00 0.00 0.00 67 1013.9
20260506190049 88 82 6.1 15.6 0.00 0.00 0.00 69 1014.0
20260506184550 88 82 7.0 17.4 0.00 0.00 0.00 67 1014.2
20260506183100 88 96 7.0 15.6 0.00 0.00 0.00 70 1014.3
20260506181552 88 110 8.7 15.6 0.00 0.00 0.00 70 1014.6
20260506180055 89 7 6.1 13.9 0.00 0.00 0.00 70 1014.7
20260506174556 88 98 7.8 17.4 0.00 0.00 0.00 68 1014.8
20260506173059 88 88 8.7 17.4 0.00 0.00 0.00 71 1014.9
20260506171604 88 119 8.7 17.4 0.00 0.00 0.00 69 1015.0
20260506170107 87 85 7.0 14.8 0.00 0.00 0.00 73 1015.0
20260506164600 87 82 9.6 15.6 0.00 0.00 0.00 72 1015.1
20260506163105 87 108 8.7 14.8 0.00 0.00 0.00 73 1015.3
20260506161603 87 139 8.7 15.6 0.00 0.00 0.00 72 1015.2
20260506160052 87 48 6.1 15.6 0.00 0.00 0.00 72 1015.2